Regional Weather Roundup
Issued by NWS

Home | Current Version | Previous Version | Text Only | Print | Product List | Glossary On
Versions: 1 2 3 4 5 6 7 8 9 10 11 12 13 14 15 16 17 18 19 20 21 22 23 24 25 26 27 28 29 30 31 32 33 34 35 36 37 38 39 40 41 42 43 44 45 46 47 48 49 50
000
ASUS42 KFFC 031710
RWRGA
WEATHER ROUNDUP FOR GEORGIA
NATIONAL WEATHER SERVICE PEACHTREE CITY GA
100 PM EDT MON AUG 03 2015

NOTE: "FAIR" INDICATES FEW OR NO CLOUDS BELOW 12,000 FEET WITH NO
SIGNIFICANT WEATHER AND/OR OBSTRUCTIONS TO VISIBILITY.

* = USE WITH CAUTION. THE STATIONS MARKED WITH AN ASTERISK MAY NOT
REPORT WEATHER SUCH AS PRECIPITATION, FOG, OR THUNDER AND ARE NOT
QUALITY CONTROLLED BY NWS.

THE REMARK "TC" DENOTES TEMPERATURE READING IN DEGREES CELSIUS.

GAZ001>058-031800-
NORTH GEORGIA

CITY           SKY/WX    TMP DP  RH WIND       PRES   REMARKS
ATLANTA        PTSUNNY   87  69  54 N3        29.95F HX  91
ATHENS         MOSUNNY   89  67  47 VRB5      29.95F HAZE    HX  92
CHAMBLEE       PTSUNNY   90  68  48 VRB3      29.95F HX  94
PEACHTREE CITY PTSUNNY   87  71  58 NW8       29.95F HX  93
ROME           SUNNY     89  61  38 W3        29.94F
WEST ATLANTA   MOSUNNY   89  70  53 CALM      29.94F HX  94
GAINESVILLE    MOSUNNY   88  68  51 E6        29.99F HX  91
CARTERSVILLE   SUNNY     89  66  46 NE7       29.96F HX  91


CITY           SKY/WX    TMP DP  RH WIND       PRES   REMARKS
DALTON*        SUNNY     86  61  42 N8        29.96F
LAWRENCEVILLE* MOSUNNY   90  63  40 CALM      29.95F HX  90
MARIETTA       PTSUNNY   88  68  51 VRB2      29.96F HX  91
KENNESAW*      MOSUNNY   90  70  51 NW5       29.97F HX  95
BLAIRSVILLE*     N/A     85  23  10 CALM      30.02F
$$

GAZ059>098-102>109-031800-
CENTRAL GEORGIA

CITY           SKY/WX    TMP DP  RH WIND       PRES   REMARKS
AUGUSTA-BUSH   PTSUNNY   86  72  62 CALM      29.91F HX  92
AUGUSTA-DANIEL PTSUNNY   86  71  60 CALM      29.94F HX  91
COLUMBUS       MOSUNNY   89  71  55 CALM      29.91F HX  95
MACON          CLOUDY    88  72  58 N6        29.91F HX  94
ROBINS AFB     MOSUNNY   87  73  61 VRB1      29.91F HX  95


CITY           SKY/WX    TMP DP  RH WIND       PRES   REMARKS
LAGRANGE*      MOSUNNY   92  78  63 W6        29.94F HX 107
SYLVANIA*      CLOUDY    79  78  94 SE7       29.92S
MILLEDGEVILLE* MOSUNNY   86  72  62 CALM      29.92F HX  92
$$

GAZ099>101-110>166-031800-
SOUTH GEORGIA

CITY           SKY/WX    TMP DP  RH WIND       PRES   REMARKS
SAVANNAH       CLOUDY    79  73  82 SE15      29.92S
VALDOSTA       LGT RAIN  80  75  84 N6        29.91S
ALMA           CLOUDY    82  74  76 CALM      29.89F
ST SIMONS      CLOUDY    82  74  76 S10G20    29.88F
FT STEWART     CLOUDY    82  77  83 SE6       29.88S HX  91
ALBANY         PTSUNNY   89  73  59 VRB6      29.93S HX  97
HUNTER AFB     DRIZZLE   77  77  99 SE5       29.89F
MOODY AFB      LGT RAIN  79  75  89 NE3       29.90F FOG
BRUNSWICK      CLOUDY    84  73  70 S10       29.89F HX  91


CITY           SKY/WX    TMP DP  RH WIND       PRES   REMARKS
BAINBRIDGE*    SUNNY     93  79  62 N3        29.91F HX 110
MOULTRIE*      PTSUNNY   86  73  66 CALM      29.92S HX  93
VIDALIA*       CLOUDY    84  73  70 CALM      29.91F HX  91
WAYCROSS*      CLOUDY    82  78  89 NE5       29.89F HX  92
DOUGLAS*       CLOUDY    84  73  70 NE6       29.92S HX  91
$$



USA.gov is the U.S. government's official web portal to all federal, state and local government web resources and services.